TIME,DELAY(SENSOR),PRES,OXYGEN,RAWTEMP,T(OPTODE),TCPHASE,FLUOR,BETA(BETA700),BETA(BETA412),BETA(BETA440),CDOM,C(CSC),ED(ED412.20),ED(ED444.00),ED(ED489.60),ED(ED554.30),LU(LU412.10),LU(LU443.90),LU(LU489.70),LU(LU554.70),COMP,TILTX,TILTY,CHECK
1367209055,5808,855.8300170898438000,31.9704303741455080,560.2214965820312000,4.4790310859680180,56.7709083557128900,55,98,99,77,82,15511,0,0,0,0,2147123081,2147773641,2147567734,2147570861,1282,3,13,14827
1367212651,5810,908.3599853515625000,34.7631797790527340,565.6724853515625000,4.3099589347839355,56.3767509460449200,55,97,99,78,81,15510,0,0,0,0,2147122834,2147776786,2147569389,2147567350,28,2,12,39785
1367216251,5812,914.4699707031250000,35.9279098510742200,567.7921142578125000,4.2441520690917970,56.2151603698730500,55,97,100,78,81,15509,0,0,0,0,2147124909,2147769252,2147569938,2147564708,160,2,13,17474
1367219851,5810,948.7100219726562000,36.0761108398437500,570.4481811523438000,4.1616330146789550,56.2176399230957000,54,98,99,77,80,15508,0,0,0,0,2147125577,2147765266,2147569654,2147568731,178,3,13,62919
1367223451,5809,953.7500000000000000,37.5696601867675800,570.2337036132812000,4.1682991981506350,55.9838294982910160,55,98,99,80,81,15509,0,0,0,0,2147122651,2147771099,2147568091,2147565696,212,2,13,47048
1367227051,5808,955.6500244140625000,36.2823486328125000,570.0385131835938000,4.1743640899658200,56.1811904907226560,55,98,99,78,81,15507,0,0,0,0,2147121974,2147770340,2147565787,2147569618,3518,2,13,40139
1367230651,5809,987.4799804687500000,38.3511886596679700,572.8176879882812000,4.0879669189453125,55.8947181701660160,55,97,99,77,82,15486,0,0,0,0,2147122742,2147766656,2147569444,2147567698,3254,2,13,53831
1367234251,5809,994.0100097656250000,38.7845115661621100,572.9094848632812000,4.0851101875305180,55.8266601562500000,55,98,99,78,82,15485,0,0,0,0,2147122038,2147774555,2147569563,2147568210,905,3,13,12604
1367237851,5809,990.6599731445312000,35.5761489868164060,572.4080200195312000,4.1007080078125000,56.3120117187500000,55,97,100,79,80,15483,0,0,0,0,2147125613,2147772041,2147571867,2147573156,3478,2,13,4759
1367241451,5812,995.3699951171875000,37.7438507080078100,572.5145874023438000,4.0973930358886720,55.9807090759277340,55,100,100,79,81,15484,0,0,0,0,2147125650,2147770230,2147577170,2147568877,80,2,13,24303
1367245051,5811,997.5399780273438000,37.5230407714843750,572.4766235351562000,4.0985741615295410,56.0188713073730500,55,97,99,78,82,15483,0,0,0,0,2147122185,2147771611,2147575241,2147565869,242,3,13,39448
1367248651,5812,998.5800170898438000,37.9685516357421900,572.4965209960938000,4.0979561805725100,55.9464302062988300,54,97,99,78,82,15482,0,0,0,0,2147123977,2147774866,2147573028,2147566555,40,3,13,60927
1367252251,5809,989.9400024414062000,38.5070686340332000,573.2296752929688000,4.0751528739929200,55.8741111755371100,56,99,101,76,82,15484,0,0,0,0,2147125568,2147775460,2147573110,2147567890,552,3,13,42661
1367255851,5808,993.8099975585938000,37.8941612243652340,572.9691772460938000,4.0832557678222660,55.9645195007324200,55,96,99,78,81,15483,0,0,0,0,2147121078,2147769243,2147571145,2147570496,3589,2,13,49944
1367259451,5810,983.7399902343750000,38.3200607299804700,573.7626953125000000,4.0585727691650390,55.9107208251953100,56,99,100,79,80,15482,0,0,0,0,2147122148,2147774070,2147576256,2147568630,30,3,13,42331
1367263051,5807,987.2700195312500000,37.3823318481445300,574.3837890625000000,4.0392508506774900,56.0609283447265600,54,99,100,78,81,15479,0,0,0,0,2147122880,2147770505,2147571190,2147568420,318,3,13,37623
1367266651,5809,990.9199829101562000,39.0302200317382800,574.1475830078125000,4.0465970039367680,55.8021507263183600,55,100,101,78,82,15476,0,0,0,0,2147122066,2147773522,2147568804,2147567990,43,2,13,41852
1367270251,5809,989.6400146484375000,38.6490898132324200,574.1605224609375000,4.0461978912353520,55.8619308471679700,54,100,101,76,81,15478,0,0,0,0,2147120301,2147774409,2147573705,2147563858,154,2,13,36369
1367273851,5811,988.1400146484375000,36.8283500671386700,574.4763183593750000,4.0363731384277340,56.1424713134765600,55,96,100,78,81,15476,0,0,0,0,2147124873,2147770633,2147573677,2147568530,2249,2,13,46801
1367277451,5808,990.2399902343750000,39.3232307434082000,574.2910766601562000,4.0421328544616700,55.7643890380859400,54,97,99,79,81,15472,0,0,0,0,2147124242,2147768274,2147569115,2147570121,20,3,13,19040
1367281051,5810,993.3599853515625000,41.0634002685546900,574.3572998046875000,4.0400748252868650,55.5019989013671900,55,103,99,78,82,15477,0,0,0,0,2147123026,2147772580,2147571282,2147568502,3439,2,13,27679
1367284651,5812,998.7399902343750000,40.1801414489746100,573.6165161132812000,4.0631217956542970,55.6253395080566400,54,99,100,77,81,15471,0,0,0,0,2147125120,2147775378,2147568310,2147567478,3551,2,13,58039
1367288251,5810,998.2800292968750000,39.6147804260253900,573.5012207031250000,4.0667080879211430,55.7092781066894500,54,96,99,77,82,15470,0,0,0,0,2147124836,2147769965,2147570276,2147569078,6,2,13,48505
1367291851,5811,996.0300292968750000,39.2728195190429700,573.3787841796875000,4.0705127716064450,55.7627906799316400,55,97,100,77,82,15471,0,0,0,0,2147122633,2147765531,2147573412,2147567981,293,2,13,23264
1367295451,5808,992.3599853515625000,39.0428581237793000,573.4816284179688000,4.0673160552978520,55.7932205200195300,55,99,100,77,82,15465,0,0,0,0,2147119789,2147770779,2147573869,2147569956,693,2,13,24078
1367299051,5808,997.7199707031250000,38.1067199707031250,574.2589721679688000,4.0431351661682130,55.9428596496582000,55,98,99,78,80,15463,0,0,0,0,2147124397,2147772187,2147577682,2147566683,363,3,13,11366
1367302651,5808,999.6099853515625000,39.6127815246582000,573.6450805664062000,4.0622310638427730,55.7141113281250000,55,98,100,78,81,15461,0,0,0,0,2147128036,2147771794,2147575177,2147567341,298,2,13,55391
1367306251,5811,995.6099853515625000,39.5397300720214840,574.0437011718750000,4.0498309135437010,55.7236099243164060,54,97,99,78,81,15461,0,0,0,0,2147121408,2147773915,2147571785,2147568000,49,2,13,32421
1367309851,5810,998.4600219726562000,39.4555015563964840,573.4337158203125000,4.0688080787658690,55.7303009033203100,54,99,99,78,81,15461,0,0,0,0,2147124827,2147771584,2147571666,2147565613,210,2,13,13168
1367313451,5808,995.3699951171875000,39.6202392578125000,574.4157714843750000,4.0382561683654785,55.7220306396484400,55,98,100,79,82,15457,0,0,0,0,2147121700,2147771958,2147574747,2147567442,3145,2,13,41424
1367317051,5807,997.7199707031250000,39.9882698059082000,574.2512817382812000,4.0433731079101560,55.6614189147949200,55,97,99,77,81,15456,0,0,0,0,2147121426,2147771008,2147568722,2147566692,3445,2,13,64415
1367320651,5809,998.1699829101562000,39.3003501892089840,573.4326171875000000,4.0688419342041020,55.7542190551757800,55,98,100,78,81,15457,0,0,0,0,2147122240,2147768640,2147572352,2147566619,430,2,13,45253
1367324251,5809,1003.6400146484375000,39.5540313720703100,573.4207763671875000,4.0692081451416020,55.7181205749511700,54,100,100,78,82,15455,0,0,0,0,2147123986,2147768850,2147573193,2147567515,3571,2,13,17830
1367327851,5810,1001.2999877929688000,38.0483894348144500,572.9821777343750000,4.0828480720520020,55.9422111511230500,54,98,100,77,81,15456,0,0,0,0,2147121234,2147770678,2147568621,2147568073,7,2,13,39553
1367331451,5808,1000.7399902343750000,38.3819007873535160,573.7913208007812000,4.0576839447021480,55.9006881713867200,54,97,99,77,82,15455,0,0,0,0,2147124580,2147768868,2147573494,2147569901,137,2,13,64666
1367335051,5811,995.9500122070312000,39.4819717407226560,574.2733764648438000,4.0426850318908690,55.7424697875976560,54,97,99,78,82,15451,0,0,0,0,2147125348,2147770596,2147574336,2147566491,633,2,13,14615
1367338651,5809,1001.0599975585938000,39.2785301208496100,574.1287841796875000,4.0471820831298830,55.7696609497070300,55,96,99,78,83,15453,0,0,0,0,2147122825,2147770669,2147573156,2147565659,326,2,13,39257
1367342251,5810,995.5100097656250000,38.1046104431152340,574.1735839843750000,4.0457921028137210,55.9416618347168000,55,99,100,77,81,15454,0,0,0,0,2147125193,2147770953,2147574198,2147567232,3420,2,13,2405
1367345851,5810,998.5999755859375000,40.7353706359863300,574.4013061523438000,4.0387058258056640,55.5536193847656250,55,98,100,78,80,15454,0,0,0,0,2147120512,2147771309,2147571766,2147572544,194,2,13,8608
1367349451,5807,994.0599975585938000,39.5516395568847660,574.4077758789062000,4.0385041236877440,55.7280006408691400,55,98,100,78,81,15454,0,0,0,0,2147120859,2147770048,2147570742,2147566976,905,2,13,59622
1367353051,5808,998.7000122070312000,40.2870216369628900,574.4426269531250000,4.0374221801757810,55.6231002807617200,55,99,99,77,81,15452,0,0,0,0,2147122413,2147767506,2147571638,2147569462,908,2,13,11904
1367353556,5810,997.6099853515625000,39.9940109252929700,574.4244995117188000,4.0379848480224610,55.6641883850097660,54,98,101,78,81,15450,0,0,0,0,2147122066,2147767058,2147569865,2147569554,484,2,13,34801
